QPF
0.00 0.00 0.00 0.00 0.00 0.00 0.00 0.00 0.00 0.00 0.00 0.00 0.00 0.00 0.00 0.00 0.00 0.00 0.00 0.00 0.00 0.00 0.00 0.00 0.00 0.00 0.00 0.00 0.00 0.00 0.00 0.00 0.00 0.00 0.00 0.00 0.00 0.00 0.00 0.00 0.00 0.00 0.00 0.00 0.00
0.00 0.00 0.00 0.00 0.00 0.00 0.00 0.00 0.00 0.00 0.00 0.00 0.00 0.00 0.00 0.00 0.00 0.00 0.00 0.00 0.00 0.00 0.00 0.00 0.00 0.00 0.00 0.00 0.00 0.00 0.00 0.00 0.00 0.00 0.00 0.00 0.00 0.00 0.00 0.00 0.00 0.00 0.00 0.00 0.00
0.00 0.00 0.00 0.00 0.00 0.00 0.00 0.00 0.00 0.00 0.00 0.00 0.00 0.00 0.00 0.00 0.00 0.00 0.00 0.00 0.00 0.00 0.00 0.00 0.00 0.00 0.00 0.00 0.00 0.00 0.00 0.00 0.00 0.00 0.00 0.00 0.00 0.00 0.00 0.00 0.00 0.00 0.00 0.00 0.00
0.00 0.00 0.00 0.00 0.00 0.00 0.00 0.00 0.00 0.00 0.00 0.00 0.00 0.00 0.00 0.00 0.00 0.00 0.00 0.00 0.00 0.00 0.00 0.00 0.00 0.00 0.00 0.00 0.00 0.00 0.00 0.00 0.00 0.00 0.00 0.00 0.00 0.00 0.00 0.00 0.00 0.00 0.00 0.00 0.00
0.00 0.00 0.00 0.00 0.00 0.00 0.00 0.00 0.00 0.00 0.00 0.00 0.00 0.00 0.00 0.00 0.00 0.00 0.00 0.00 0.00 0.00 0.00 0.00 0.00 0.00 0.00 0.00 0.00 0.00 0.00 0.00 0.00 0.00 0.00 0.00 0.00 0.00 0.00 0.00 0.00 0.00 0.00 0.00 0.00
0.00 0.00 0.00 0.00 0.00 0.00 0.00 0.00 0.00 0.00 0.00 0.00 0.00 0.00 0.00 0.00 0.00 0.00 0.00 0.00 0.00 0.00 0.00 0.00 0.00 0.00 0.00 0.00 0.00 0.00 0.00 0.00 0.00 0.00 0.00 0.00 0.00 0.00 0.00 0.00 0.00 0.00 0.00 0.00 0.00
0.00 0.00 0.00 0.00 0.00 0.00 0.00 0.00 0.00 0.00 0.00 0.00 0.00 0.00 0.00 0.00 0.00 0.00 0.00 0.00 0.00 0.00 0.00 0.00 0.00 0.00 0.00 0.00 0.00 0.00 0.00 0.00 0.00 0.00 0.00 0.00 0.00 0.00 0.00 0.00 0.00 0.00 0.00 0.00 0.00
0.00 0.00 0.00 0.00 0.00 0.00 0.00 0.00 0.00 0.00 0.00 0.00 0.00 0.00 0.00 0.00 0.00 0.00 0.00 0.00 0.00 0.00 0.00 0.00 0.00 0.00 0.00 0.00 0.00 0.00 0.00 0.00 0.00 0.00 0.00 0.00 0.00 0.00 0.00 0.00 0.00 0.00 0.00 0.00 0.00
0.00 0.00 0.00 0.00 0.00 0.00 0.00 0.00 0.00 0.00 0.00 0.00 0.00 0.00 0.00 0.00 0.00 0.00 0.00 0.00 0.00 0.00 0.00 0.00 0.00 0.00 0.00 0.00 0.00 0.00 0.00 0.00 0.00 0.00 0.00 0.00 0.00 0.00 0.00 0.00 0.00 0.00 0.00 0.00 0.00
0.00 0.00 0.00 0.00 0.00 0.00 0.00 0.00 0.00 0.00 0.00 0.00 0.00 0.00 0.00 0.00 0.00 0.00 0.00 0.00 0.00 0.00 0.00 0.00 0.00 0.00 0.00 0.00 0.00 0.00 0.00 0.00 0.00 0.00 0.00 0.00 0.00 0.00 0.00 0.00 0.00 0.00 0.00 0.00 0.00
0.00 0.00 0.00 0.00 0.00 0.00 0.00 0.00 0.00 0.00 0.00 0.00 0.00 0.00 0.00 0.00 0.00 0.00 0.00 0.00 0.00 0.00 0.00 0.00 0.00 0.00 0.00 0.00 0.00 0.00 0.00 0.00 0.00 0.00 0.00 0.00 0.00 0.00 0.00 0.00 0.00 0.00 0.00 0.00 0.00
0.00 0.00 0.00 0.00 0.00 0.00 0.00 0.00 0.00 0.00 0.00 0.00 0.00 0.00 0.00 0.00 0.00 0.00 0.00 0.00 0.00 0.00 0.00 0.00 0.00 0.00 0.00 0.00 0.00 0.00 0.00 0.00 0.00 0.00 0.00 0.00 0.00 0.00 0.00 0.00 0.00 0.00 0.00 0.00 0.00
0.00 0.00 0.00 0.00 0.00 0.00 0.00 0.00 0.00 0.00 0.00 0.00 0.00 0.00 0.00 0.00 0.00 0.00 0.00 0.00 0.00 0.00 0.00 0.00 0.00 0.00 0.00 0.00 0.00 0.00 0.00 0.00 0.00 0.00 0.00 0.00 0.00 0.00 0.00 0.00 0.00 0.00 0.00 0.00 0.00
0.00 0.00 0.00 0.00 0.00 0.00 0.00 0.00 0.00 0.00 0.00 0.00 0.00 0.00 0.00 0.00 0.00 0.00 0.00 0.00 0.00 0.00 0.00 0.00 0.00 0.00 0.00 0.00 0.00 0.00 0.00 0.00 0.00 0.00 0.00 0.00 0.00 0.00 0.00 0.00 0.00 0.00 0.00 0.00 0.00
0.00 0.00 0.00 0.00 0.00 0.00 0.00 0.00 0.00 0.00 0.00 0.00 0.00 0.00 0.00 0.00 0.00 0.00 0.00 0.00 0.00 0.00 0.00 0.00 0.00 0.00 0.00 0.00 0.00 0.00 0.00 0.00 0.00 0.00 0.00 0.00 0.00 0.00 0.00 0.00 0.00 0.00 0.00 0.00 0.00
0.00 0.00 0.01 0.00 0.00 0.00 0.00 0.00 0.00 0.00 0.00 0.00 0.00 0.00 0.00 0.00 0.00 0.00 0.00 0.00 0.00 0.00 0.00 0.00 0.00 0.00 0.00 0.00 0.00 0.00 0.00 0.00 0.00 0.00 0.00 0.00 0.00 0.00 0.00 0.00 0.00 0.00 0.00 0.00 0.00
0.00 0.00 0.02 0.00 0.00 0.00 0.00 0.00 0.01 0.00 0.00 0.00 0.00 0.00 0.00 0.00 0.00 0.00 0.00 0.00 0.00 0.00 0.00 0.00 0.00 0.00 0.00 0.00 0.00 0.00 0.00 0.00 0.00 0.00 0.00 0.00 0.00 0.00 0.00 0.00 0.00 0.00 0.00 0.00 0.00
0.00 0.01 0.01 0.00 0.00 0.00 0.00 0.00 0.00 0.00 0.00 0.00 0.00 0.00 0.00 0.00 0.00 0.00 0.00 0.00 0.00 0.00 0.00 0.00 0.00 0.00 0.00 0.00 0.00 0.00 0.00 0.00 0.00 0.00 0.00 0.00 0.00 0.00 0.00 0.00 0.00 0.00 0.00 0.00 0.00
0.02 0.01 0.01 0.00 0.00 0.00 0.00 0.00 0.00 0.00 0.00 0.00 0.00 0.00 0.00 0.00 0.00 0.00 0.00 0.00 0.00 0.00 0.00 0.00 0.00 0.00 0.00 0.00 0.00 0.00 0.00 0.00 0.00 0.00 0.00 0.00 0.00 0.00 0.00 0.00 0.00 0.00 0.00 0.00 0.00
0.03 0.01 0.00 0.00 0.00 0.00 0.00 0.00 0.00 0.00 0.00 0.00 0.00 0.00 0.00 0.00 0.00 0.00 0.00 0.00 0.00 0.00 0.00 0.00 0.00 0.00 0.00 0.00 0.00 0.00 0.00 0.00 0.00 0.00 0.00 0.00 0.00 0.00 0.00 0.00 0.00 0.00 0.00 0.00 0.00
0.06 0.04 0.00 0.00 0.04 0.02 0.00 0.00 0.00 0.00 0.00 0.00 0.00 0.00 0.00 0.00 0.00 0.00 0.00 0.00 0.00 0.00 0.00 0.00 0.00 0.00 0.00 0.00 0.00 0.00 0.00 0.00 0.00 0.00 0.00 0.00 0.00 0.00 0.00 0.00 0.00 0.00 0.00 0.00 0.00
0.06 0.02 0.01 0.00 0.02 0.01 0.00 0.00 0.00 0.00 0.00 0.00 0.00 0.00 0.00 0.00 0.00 0.00 0.00 0.00 0.00 0.00 0.00 0.00 0.00 0.00 0.00 0.00 0.00 0.00 0.00 0.00 0.00 0.00 0.00 0.00 0.00 0.00 0.00 0.00 0.00 0.00 0.00 0.00 0.00
0.04 0.01 0.01 0.00 0.00 0.00 0.00 0.00 0.00 0.00 0.00 0.00 0.00 0.00 0.00 0.00 0.00 0.00 0.00 0.00 0.00 0.00 0.00 0.00 0.00 0.00 0.00 0.00 0.00 0.00 0.00 0.00 0.00 0.00 0.00 0.00 0.00 0.00 0.00 0.00 0.00 0.00 0.00 0.00 0.00
0.01 0.01 0.01 0.01 0.00 0.00 0.00 0.01 0.00 0.00 0.00 0.00 0.00 0.00 0.00 0.00 0.00 0.00 0.00 0.00 0.00 0.00 0.00 0.00 0.00 0.00 0.00 0.00 0.00 0.00 0.00 0.00 0.00 0.00 0.00 0.00 0.00 0.00 0.00 0.00 0.00 0.00 0.00 0.00 0.00
0.01 0.00 0.00 0.00 0.00 0.00 0.00 0.00 0.00 0.00 0.00 0.00 0.00 0.00 0.00 0.00 0.00 0.00 0.00 0.00 0.00 0.00 0.00 0.00 0.00 0.00 0.00 0.00 0.00 0.00 0.00 0.00 0.00 0.00 0.00 0.00 0.00 0.00 0.00 0.00 0.00 0.00 0.00 0.00 0.00
0.00 0.00 0.01 0.00 0.00 0.00 0.00 0.00 0.00 0.00 0.00 0.00 0.00 0.00 0.00 0.00 0.00 0.00 0.00 0.00 0.00 0.00 0.00 0.01 0.00 0.00 0.00 0.00 0.00 0.00 0.00 0.00 0.00 0.00 0.00 0.00 0.00 0.00 0.00 0.00 0.00 0.00 0.00 0.00 0.00
0.00 0.00 0.00 0.00 0.00 0.00 0.00 0.00 0.00 0.00 0.00 0.00 0.00 0.00 0.00 0.00 0.00 0.00 0.00 0.00 0.02 0.02 0.00 0.00 0.00 0.00 0.00 0.00 0.00 0.00 0.00 0.00 0.00 0.00 0.00 0.00 0.00 0.00 0.00 0.00 0.00 0.00 0.00 0.00 0.00
MSLP
1022.32 1021.77 1021.34 1020.84 1020.57 1020.42 1020.06 1019.73 1019.42 1019.02 1018.53 1018.07 1017.48 1016.82 1016.24 1015.43 1014.36 1013.21 1012.42 1010.02 1010.13 1009.71 1009.88 1010.56 1010.82 1011.11 1011.21 1011.60 1011.88 1012.51 1013.60 1014.07 1013.28 1012.41 1010.85 1009.41 1009.59 1009.18 1009.60 1010.02 1010.15 1010.04 1010.04 1010.34 1010.31
1022.27 1021.91 1021.41 1020.87 1020.31 1020.07 1019.87 1019.58 1019.31 1018.87 1018.54 1018.01 1017.45 1016.72 1016.20 1015.59 1014.47 1012.46 1009.62 1009.26 1009.64 1009.50 1009.89 1010.39 1010.60 1010.89 1011.54 1011.62 1011.88 1012.43 1013.05 1012.53 1011.60 1010.87 1010.20 1009.33 1009.33 1009.13 1009.60 1009.63 1010.04 1009.98 1009.99 1010.01 1010.05
1022.07 1021.89 1021.52 1020.82 1020.29 1019.88 1019.57 1019.39 1019.06 1018.69 1018.43 1017.96 1017.48 1016.68 1016.13 1015.76 1014.45 1010.53 1008.91 1008.99 1009.24 1009.42 1009.53 1009.89 1010.14 1010.58 1011.34 1011.52 1011.66 1011.76 1011.77 1011.04 1010.12 1009.73 1009.21 1009.11 1009.28 1009.07 1009.01 1009.80 1009.18 1009.33 1009.39 1009.67 1009.98
1022.10 1021.67 1021.53 1020.76 1020.33 1019.80 1019.21 1019.04 1018.71 1018.49 1018.13 1017.86 1017.38 1016.80 1015.97 1015.60 1013.16 1009.77 1009.48 1009.49 1009.55 1009.53 1009.71 1009.79 1010.13 1010.43 1011.02 1011.28 1011.12 1011.13 1010.58 1010.32 1009.66 1008.82 1008.96 1008.90 1008.83 1008.71 1009.10 1008.43 1008.03 1008.21 1009.34 1010.52 1010.88
1021.97 1021.68 1021.26 1020.88 1020.17 1019.72 1019.05 1018.68 1018.38 1018.13 1017.85 1017.68 1017.26 1016.90 1016.09 1015.16 1012.05 1009.60 1009.58 1009.84 1009.84 1009.83 1009.58 1009.82 1009.90 1010.27 1010.61 1010.64 1010.80 1010.65 1009.90 1009.45 1009.16 1008.70 1008.57 1008.56 1008.62 1008.55 1008.51 1008.38 1008.49 1008.99 1009.67 1010.46 1010.85
1021.87 1021.62 1020.98 1020.77 1020.07 1019.42 1018.90 1018.34 1018.05 1017.73 1017.53 1017.30 1017.09 1016.96 1016.30 1014.61 1010.08 1009.79 1009.53 1009.90 1009.93 1009.77 1009.52 1009.71 1009.39 1009.70 1010.18 1010.23 1010.51 1010.14 1009.89 1009.30 1008.62 1008.17 1008.16 1008.47 1008.73 1008.88 1007.95 1008.53 1009.12 1009.30 1009.96 1010.37 1010.74
1021.69 1021.30 1021.14 1020.32 1020.13 1019.29 1018.59 1018.06 1017.61 1017.13 1017.06 1016.86 1016.82 1016.86 1015.89 1012.17 1009.87 1009.89 1010.10 1009.93 1009.76 1009.60 1009.43 1009.41 1009.47 1009.44 1010.08 1010.14 1009.82 1010.03 1009.88 1009.08 1008.11 1007.83 1007.81 1007.97 1008.83 1008.56 1007.89 1008.82 1009.21 1009.51 1010.06 1010.84 1011.00
1021.43 1021.14 1020.74 1020.16 1019.76 1019.21 1018.33 1017.60 1016.89 1016.32 1016.16 1016.24 1016.40 1016.31 1014.32 1010.39 1009.84 1009.84 1009.78 1009.53 1009.42 1009.64 1009.43 1009.20 1009.53 1009.58 1009.89 1009.96 1009.92 1010.27 1010.08 1009.61 1007.85 1007.98 1007.65 1007.96 1008.08 1007.37 1008.23 1008.94 1009.57 1009.85 1010.24 1010.46 1010.64
1021.17 1020.96 1020.47 1020.07 1019.47 1018.87 1017.91 1016.79 1015.64 1015.08 1015.04 1015.45 1016.11 1015.82 1012.72 1009.99 1009.68 1008.41 1008.85 1008.86 1008.80 1009.03 1008.96 1009.03 1009.45 1009.67 1009.86 1010.43 1010.85 1010.70 1010.67 1009.99 1008.63 1007.91 1008.12 1008.48 1007.94 1007.57 1008.37 1009.19 1009.95 1009.99 1010.32 1010.47 1011.01
1020.86 1020.84 1020.20 1019.69 1019.36 1018.68 1017.60 1016.26 1014.87 1014.68 1014.82 1015.22 1015.28 1015.62 1011.55 1009.62 1008.62 1008.05 1008.23 1008.33 1008.45 1008.54 1008.96 1009.08 1009.44 1009.67 1010.03 1010.77 1010.77 1010.83 1010.76 1010.25 1009.40 1008.08 1008.27 1008.58 1008.31 1008.01 1008.58 1009.31 1009.95 1010.46 1010.47 1010.38 1010.65
1020.69 1020.58 1020.06 1019.53 1019.14 1018.46 1017.63 1016.17 1015.68 1014.92 1014.90 1014.28 1013.90 1012.73 1010.53 1009.41 1008.27 1007.79 1008.04 1008.32 1008.42 1008.44 1008.77 1008.94 1009.52 1008.92 1009.15 1009.70 1010.14 1010.44 1010.45 1010.34 1008.99 1007.60 1008.58 1007.90 1008.05 1008.09 1008.39 1009.26 1009.84 1010.46 1010.84 1010.41 1010.34
1020.57 1020.44 1020.02 1019.50 1018.95 1018.42 1018.19 1018.06 1017.79 1017.86 1015.50 1013.57 1012.47 1011.78 1010.56 1010.45 1010.05 1007.63 1007.86 1008.33 1008.40 1008.48 1008.71 1009.14 1008.15 1008.53 1009.11 1009.53 1009.89 1010.25 1010.22 1009.74 1008.80 1007.73 1008.04 1007.45 1007.57 1007.45 1007.88 1008.24 1008.78 1009.31 1010.37 1010.63 1010.48
1020.45 1020.24 1019.99 1019.40 1018.97 1018.54 1018.71 1018.24 1017.66 1017.45 1016.23 1011.57 1010.24 1009.35 1008.73 1009.09 1008.58 1007.42 1008.21 1007.72 1007.94 1008.43 1008.52 1008.31 1007.61 1007.42 1008.27 1008.89 1009.38 1009.48 1009.52 1009.02 1009.16 1007.97 1007.73 1007.79 1007.57 1007.61 1007.29 1007.65 1008.18 1008.67 1009.50 1010.44 1010.49
1020.27 1020.20 1019.95 1019.46 1019.16 1018.77 1018.38 1018.13 1017.58 1017.36 1015.88 1011.20 1009.26 1007.54 1007.30 1007.67 1007.70 1006.56 1006.74 1007.09 1007.35 1007.67 1008.34 1008.31 1007.33 1007.53 1007.71 1007.99 1008.44 1008.72 1008.05 1008.44 1008.71 1008.83 1008.15 1007.77 1007.95 1007.52 1007.11 1006.96 1007.46 1007.70 1008.40 1009.13 1009.64
1020.00 1020.01 1019.82 1019.63 1019.45 1018.99 1018.34 1017.77 1017.25 1017.01 1014.78 1009.50 1007.68 1006.60 1006.79 1007.21 1006.28 1005.39 1005.59 1006.36 1006.54 1007.09 1007.75 1006.94 1006.69 1006.83 1007.18 1006.53 1007.49 1007.46 1007.39 1008.06 1008.36 1008.72 1008.29 1008.09 1008.37 1006.69 1006.66 1006.68 1006.63 1006.80 1007.26 1008.06 1008.72
1019.79 1019.79 1019.67 1019.50 1019.64 1018.84 1018.35 1017.66 1017.21 1016.79 1012.84 1008.75 1007.47 1007.46 1007.61 1007.24 1006.29 1005.65 1005.99 1006.11 1006.20 1006.86 1006.83 1006.69 1006.10 1006.11 1005.59 1005.74 1006.61 1006.69 1007.46 1007.84 1008.06 1008.48 1008.37 1008.07 1008.21 1006.11 1006.00 1005.04 1004.83 1005.36 1006.03 1006.86 1007.69
1019.44 1019.49 1019.47 1019.35 1019.39 1018.95 1018.45 1018.10 1017.60 1015.71 1011.48 1009.44 1008.67 1008.25 1007.70 1007.41 1006.87 1006.18 1006.31 1006.77 1006.32 1006.96 1006.54 1006.73 1005.97 1005.75 1005.31 1005.51 1006.02 1006.78 1007.65 1008.69 1008.82 1008.95 1008.29 1007.78 1007.56 1005.65 1004.25 1003.94 1003.49 1003.77 1004.57 1005.40 1006.43
1018.98 1019.05 1019.06 1018.96 1019.09 1019.15 1019.04 1018.83 1017.03 1013.32 1011.80 1010.12 1009.76 1008.89 1008.60 1008.33 1007.84 1007.23 1006.88 1007.18 1006.95 1006.63 1006.58 1006.64 1006.01 1005.47 1004.86 1004.71 1004.97 1005.79 1006.76 1007.97 1008.32 1009.00 1008.60 1007.81 1006.60 1004.36 1002.99 1002.34 1002.22 1002.65 1003.13 1004.46 1005.60
1018.63 1018.98 1019.08 1018.55 1019.15 1019.54 1019.67 1018.49 1014.83 1013.32 1012.33 1011.79 1010.65 1010.04 1009.66 1009.53 1009.30 1008.54 1008.39 1007.94 1007.26 1007.09 1007.08 1006.38 1005.64 1004.21 1003.47 1003.88 1004.62 1004.89 1005.62 1006.05 1007.39 1008.34 1008.57 1007.65 1006.00 1003.88 1002.65 1002.25 1002.17 1002.42 1003.48 1004.08 1004.76
1018.49 1018.49 1018.04 1018.08 1018.80 1019.50 1019.44 1016.84 1014.86 1013.53 1013.04 1012.68 1012.42 1011.77 1011.37 1011.04 1010.38 1009.93 1009.49 1008.81 1008.06 1007.83 1007.03 1006.15 1005.58 1004.02 1003.29 1003.30 1003.17 1003.54 1004.56 1005.93 1006.94 1008.00 1008.11 1007.15 1006.13 1004.58 1003.31 1002.60 1002.50 1002.87 1003.15 1003.52 1004.11
1018.15 1017.61 1016.74 1017.30 1018.36 1018.77 1017.55 1016.36 1014.87 1014.19 1013.79 1013.67 1013.19 1012.83 1012.45 1012.16 1011.63 1010.98 1010.28 1009.43 1009.07 1008.53 1008.21 1007.43 1006.47 1005.02 1003.76 1002.92 1002.75 1003.42 1003.97 1004.70 1005.49 1006.65 1007.04 1006.99 1005.33 1003.45 1002.81 1002.48 1002.21 1002.58 1002.71 1002.92 1003.41
1017.08 1016.63 1016.17 1016.93 1017.93 1016.91 1015.94 1015.80 1015.32 1014.32 1013.85 1014.06 1013.85 1013.85 1013.56 1013.13 1012.40 1011.81 1010.76 1010.09 1009.49 1009.44 1009.32 1008.54 1006.96 1005.47 1003.69 1002.95 1002.43 1002.32 1002.76 1003.69 1004.80 1006.06 1006.21 1005.71 1004.12 1002.36 1002.05 1002.19 1002.18 1002.01 1002.17 1002.45 1002.74
1015.94 1015.81 1015.80 1015.93 1015.72 1015.30 1015.47 1015.21 1015.24 1014.83 1014.29 1014.25 1014.06 1013.87 1013.64 1013.39 1013.31 1011.78 1011.09 1010.11 1009.91 1009.88 1010.29 1010.22 1008.16 1006.67 1004.73 1003.44 1002.04 1002.41 1002.65 1003.16 1003.85 1004.49 1004.66 1004.87 1003.23 1001.88 1001.66 1001.56 1001.48 1001.76 1001.95 1002.22 1002.45
1015.64 1015.07 1014.72 1014.25 1013.59 1013.99 1014.65 1014.39 1014.65 1014.46 1014.59 1014.41 1014.49 1014.18 1014.13 1013.81 1013.22 1012.37 1011.55 1010.67 1010.27 1010.41 1010.60 1010.64 1009.01 1007.43 1005.21 1003.42 1002.69 1002.49 1002.41 1002.78 1003.24 1003.72 1003.69 1002.72 1002.61 1001.81 1001.39 1001.25 1001.13 1001.16 1001.31 1001.58 1001.80
1014.10 1013.29 1012.72 1012.77 1012.58 1013.29 1013.63 1013.24 1013.72 1013.72 1013.76 1013.88 1014.15 1014.11 1014.41 1014.00 1013.14 1012.33 1011.67 1011.17 1010.30 1010.27 1010.84 1010.89 1009.11 1007.09 1004.85 1003.97 1003.00 1002.37 1002.18 1002.31 1002.63 1002.79 1002.35 1002.04 1001.63 1000.92 1000.50 1000.27 1000.35 1000.30 1000.55 1000.97 1001.54
1012.30 1012.19 1012.17 1011.84 1011.94 1012.56 1012.58 1012.13 1012.35 1012.70 1012.92 1013.02 1013.40 1013.23 1013.35 1013.30 1012.75 1011.81 1011.17 1010.86 1010.51 1010.43 1010.60 1011.33 1009.53 1007.51 1004.67 1003.35 1002.77 1002.18 1001.89 1001.69 1001.68 1002.01 1001.28 1001.21 1000.09 999.84 999.44 999.52 999.90 999.95 1000.26 1000.52 1000.63
1011.00 1011.24 1010.95 1010.56 1011.08 1011.40 1010.72 1011.07 1011.20 1012.24 1011.98 1012.04 1012.22 1012.59 1012.60 1011.37 1011.38 1011.23 1010.88 1010.74 1010.48 1010.36 1010.62 1011.29 1010.85 1008.87 1005.51 1003.92 1003.10 1002.67 1000.80 1000.83 1000.78 1001.39 1001.69 1000.60 999.73 999.06 999.24 999.27 999.40 999.29 999.62 999.94 1000.10
Thickness
5603 5610 5614 5620 5625 5628 5632 5635 5639 5644 5648 5652 5657 5662 5668 5676 5684 5695 5698 5718 5718 5720 5717 5708 5702 5695 5690 5682 5681 5668 5639 5622 5629 5636 5653 5670 5663 5669 5664 5655 5655 5656 5654 5652 5652
5593 5598 5605 5610 5618 5622 5626 5629 5632 5637 5641 5646 5652 5657 5661 5670 5678 5690 5719 5721 5717 5718 5711 5701 5695 5690 5674 5675 5671 5654 5630 5637 5650 5653 5657 5665 5663 5661 5658 5655 5653 5654 5654 5653 5652
5586 5589 5594 5602 5608 5614 5619 5623 5626 5630 5633 5639 5644 5651 5656 5662 5673 5697 5717 5717 5715 5713 5711 5704 5699 5688 5671 5669 5665 5658 5645 5655 5663 5664 5666 5663 5661 5665 5661 5648 5659 5656 5653 5651 5646
5576 5581 5583 5593 5599 5604 5612 5616 5620 5623 5628 5631 5637 5643 5651 5657 5668 5699 5707 5707 5707 5707 5703 5696 5689 5679 5668 5662 5667 5660 5664 5664 5666 5675 5668 5662 5666 5666 5660 5668 5673 5669 5656 5642 5634
5567 5570 5575 5579 5588 5595 5602 5608 5613 5617 5622 5625 5630 5635 5643 5652 5672 5695 5701 5699 5699 5698 5695 5689 5682 5675 5663 5665 5664 5660 5671 5672 5667 5668 5666 5669 5663 5667 5663 5667 5666 5661 5650 5638 5634
5556 5559 5566 5568 5577 5585 5593 5600 5604 5610 5614 5618 5623 5626 5634 5642 5686 5687 5695 5691 5690 5693 5691 5687 5683 5680 5670 5666 5661 5665 5665 5665 5668 5670 5670 5659 5659 5664 5670 5663 5654 5653 5642 5637 5635
5546 5551 5553 5562 5564 5574 5583 5591 5596 5604 5606 5612 5615 5618 5628 5658 5680 5683 5683 5684 5687 5687 5684 5685 5683 5679 5670 5663 5671 5666 5657 5661 5670 5672 5670 5670 5655 5658 5669 5658 5653 5649 5641 5634 5631
5537 5541 5546 5552 5557 5562 5574 5583 5591 5599 5603 5606 5608 5613 5630 5669 5672 5676 5676 5679 5681 5680 5681 5682 5680 5673 5668 5668 5663 5655 5655 5642 5671 5668 5671 5669 5649 5673 5663 5655 5647 5644 5639 5637 5637
5527 5531 5537 5542 5549 5556 5566 5577 5589 5597 5601 5602 5600 5606 5632 5662 5662 5677 5676 5675 5675 5675 5678 5679 5674 5665 5664 5649 5637 5641 5630 5637 5652 5668 5663 5656 5655 5674 5663 5654 5646 5643 5638 5636 5629
5519 5520 5528 5534 5540 5549 5559 5572 5584 5588 5591 5592 5596 5597 5635 5650 5664 5671 5671 5672 5668 5668 5665 5664 5657 5651 5645 5637 5622 5627 5631 5639 5644 5660 5658 5648 5651 5663 5660 5653 5646 5638 5638 5638 5634
5508 5512 5519 5526 5532 5541 5552 5565 5570 5580 5579 5592 5600 5612 5633 5648 5659 5661 5663 5659 5661 5659 5647 5654 5640 5649 5653 5645 5647 5643 5639 5631 5647 5666 5651 5651 5655 5660 5660 5651 5643 5636 5635 5640 5638
5498 5504 5511 5517 5525 5533 5539 5541 5545 5544 5566 5590 5602 5608 5624 5624 5625 5651 5654 5644 5644 5640 5646 5641 5646 5658 5653 5645 5642 5636 5633 5635 5646 5659 5653 5652 5654 5663 5661 5659 5655 5649 5638 5635 5638
5489 5495 5501 5508 5516 5523 5524 5531 5538 5542 5550 5602 5611 5620 5627 5622 5628 5641 5638 5644 5639 5630 5634 5637 5655 5664 5653 5645 5639 5636 5633 5638 5633 5649 5658 5650 5645 5656 5666 5665 5660 5656 5649 5637 5636
5478 5484 5490 5497 5507 5512 5518 5523 5531 5536 5539 5593 5607 5621 5627 5626 5618 5647 5646 5644 5637 5633 5631 5627 5656 5651 5645 5645 5643 5630 5652 5646 5641 5632 5629 5649 5617 5646 5659 5663 5661 5662 5653 5648 5644
5468 5473 5480 5485 5491 5499 5511 5517 5525 5531 5534 5600 5611 5625 5621 5617 5630 5643 5650 5638 5633 5633 5630 5634 5644 5646 5636 5656 5646 5646 5653 5644 5640 5633 5635 5638 5621 5642 5659 5656 5661 5664 5662 5655 5652
5456 5461 5469 5475 5479 5490 5498 5507 5517 5526 5534 5585 5601 5597 5600 5608 5619 5629 5629 5637 5641 5631 5633 5633 5651 5644 5652 5661 5648 5659 5644 5643 5634 5628 5615 5634 5623 5639 5645 5668 5678 5674 5670 5664 5659
5444 5450 5458 5463 5465 5477 5485 5491 5503 5502 5569 5579 5574 5582 5591 5598 5606 5618 5615 5613 5614 5608 5616 5624 5634 5645 5652 5642 5645 5641 5629 5600 5602 5600 5611 5634 5623 5645 5670 5679 5688 5685 5680 5675 5668
5434 5440 5448 5452 5454 5460 5463 5472 5489 5542 5551 5562 5561 5567 5572 5579 5590 5595 5605 5598 5609 5616 5609 5606 5608 5631 5647 5645 5644 5634 5628 5598 5605 5597 5611 5632 5621 5650 5680 5690 5698 5700 5694 5683 5672
5420 5426 5434 5439 5438 5442 5442 5454 5509 5527 5535 5533 5544 5547 5552 5559 5569 5578 5580 5591 5600 5604 5599 5599 5606 5642 5653 5653 5648 5635 5619 5647 5617 5612 5600 5614 5636 5664 5680 5687 5688 5692 5685 5682 5677
5406 5414 5429 5424 5425 5426 5431 5466 5488 5512 5512 5515 5508 5525 5528 5534 5546 5556 5562 5577 5580 5587 5600 5605 5598 5632 5645 5647 5651 5642 5645 5617 5607 5595 5596 5611 5622 5632 5657 5672 5678 5676 5680 5682 5680
5393 5405 5424 5414 5412 5417 5432 5445 5475 5482 5487 5489 5499 5502 5512 5517 5527 5536 5545 5558 5564 5572 5576 5586 5590 5604 5629 5628 5630 5627 5625 5629 5628 5605 5598 5595 5609 5652 5659 5669 5675 5673 5675 5680 5678
5387 5397 5410 5401 5400 5421 5434 5440 5457 5468 5473 5470 5476 5477 5481 5494 5504 5515 5528 5541 5548 5554 5551 5562 5578 5585 5610 5630 5641 5643 5638 5634 5609 5606 5605 5606 5625 5667 5665 5664 5668 5673 5676 5676 5678
5381 5390 5393 5396 5403 5419 5428 5435 5436 5444 5454 5459 5464 5469 5475 5479 5476 5502 5513 5532 5538 5536 5533 5540 5555 5564 5589 5606 5627 5616 5625 5630 5624 5616 5605 5600 5622 5666 5664 5668 5671 5672 5672 5672 5671
5364 5381 5389 5395 5413 5419 5419 5424 5422 5437 5437 5445 5449 5457 5458 5463 5475 5484 5501 5516 5526 5527 5528 5528 5542 5554 5572 5599 5609 5607 5618 5623 5624 5600 5608 5626 5633 5654 5659 5661 5669 5672 5673 5671 5671
5363 5380 5399 5401 5411 5414 5417 5432 5423 5428 5441 5442 5443 5448 5447 5451 5465 5473 5490 5499 5519 5519 5520 5523 5535 5560 5584 5597 5603 5607 5610 5616 5616 5619 5614 5628 5634 5655 5662 5663 5668 5674 5675 5673 5670
5368 5382 5391 5398 5412 5406 5416 5427 5436 5439 5444 5446 5444 5452 5448 5446 5459 5476 5484 5488 5503 5510 5514 5508 5530 5547 5574 5592 5600 5600 5605 5612 5615 5614 5626 5629 5641 5660 5666 5665 5664 5669 5668 5670 5672
5371 5378 5390 5406 5408 5411 5424 5432 5440 5436 5445 5450 5451 5449 5448 5465 5468 5472 5476 5481 5491 5499 5488 5487 5504 5518 5559 5578 5581 5566 5602 5613 5618 5610 5612 5613 5640 5660 5655 5657 5660 5666 5668 5669 5671